EHI
0 0 0 0 0 0 0 0 0 0 0 0 0 0 0 0 0 0 0 0 0 0 0 0 0 0 0 0 0 0 0 0 0 0 0 0 0 0 0 0 0 0 0 0
0 0 0 0 0 0 0 0 0 0 0 0 0 0 0 0 0 0 0 0 0 0 0 0 0 0 0 0 0 0 0 0 0 0 0 0 0 0 0 0 0 0 0 0
0 0 0 0 0 0 0 0 0 0 0 0 0 0 0 0 0 0 0 0 0 0 0 0 0 0 0 0 0 0 0 0 0 0 0 0 0 0 0 0 0 0 0 0
0 0 0 0 0 0 0 0 0 0 0 0 0 0 0 0 0 0 0 0 0 0 0 0 0 0 0 0 0 0 0 0 0 0 0 0 0 0 0 0 0 0 0 0
0 0 0 0 0 0 0 0 0 0 0 0 0 0 0 0 0 0 0 0 0 0 0 0 0 0 0 0 0 0 0 0 0 0 0 0 0 0 0 0 0 0 0 0
0 0 0 0 0 0 0 0 0 0 0 0 0 0 0 0 0 0 0 0 0 0 0 0 0 0 0 0 0 0 0 0 0 0 0 0 0 0 0 0 0 0 0 0
0 0 0 0 0 0 0 0 0 0 0 0 0 0 0 0 0 0 0 0 0 0 0 0 0 0 0 0 0 0 0 0 0 0 0 0 0 0 0 0 0 0 0 0
0 0 0 0 0 0 0 0 0 0 0 0 0 0 0 0 0 0 0 0 0 0 0 0 0 0 0 0 0 0 0 0 0 0 0 0 0 0 0 0 0 0 0 0
0 0 0 0 0 0 0 0 0 0 0 0 0 0 0 0 0 0 0 0 0 0 0 0 0 0 0 0 0 0 0 0 0 0 0 0 0 0 0 0 0 0 0 0
0 0 0 0 0 0 0 0 0 0 0 0 0 0 0 0 0 0 0 0 0 0 0 0 0 0 0 0 0 0 0 0 0 0 0 0 0 0 0 0 0 0 0 0
0 0 0 0 0 0 0 0 0 0 0 0 0 0 0 0 0 0 0 0 0 0 0 0 0 0 0 0 0 0 0 0 0 0 0 0 0 0 0 0 0 0 0 0
0 0 0 0 0 0 0 0 0 0 0 0 0 0 0 0 0 0 0 0 0 0 0 0 0 0 0 0 0 0 0 0 0 0 0 0 0 0 0 0 0 0 0 0
0 0 0 0 0 0 0 0 0 0 0 0 0 0 0 0 0 0 0 0 0 0 0 0 0 0 0 0 0 0 0 0 0 0 0 0 0 0 0 0 0 0 0 0
0 0 0 0 0 0 0 0 0 0 0 0 0 0 0 0 0 0 0 0 0 0 0 0 0 0 0 0 0 0 0 0 0 0 0 0 0 0 0 0 0 0 0 0
0 0 0 0 0 0 0 0 0 0 0 0 0 0 0 0 0 0 0 0 0 0 0 0 0 0 0 0 0 0 0 0 0 0 0 0 0 0 0 0 0 0 0 0
0 0 0 0 0 0 0 0 0 0 0 0 0 0 0 0 0 0 0 0 0 0 0 0 0 0 0 0 0 0 0 0 0 0 0 0 0 0 0 0 0 0 0 0
0 0 0 0 0 0 0 0 0 0 0 0 0 0 0 0 0 0 0 0 0 0 0 0 0 0 0 0 0 0 0 0 0 0 0 0 0 0 0 0 0 0 0 0
0 0 0 0 0 0 0 0 0 0 0 0 0 0 0 0 0 0 0 0 0 0 0 0 0 0 0 0 0 0 0 0 0 0 0 0 0 0 0 0 0 0 0 0
0 0 0 0 0 0 0 0 0 0 0 0 0 0 0 0 0 0 0 0 0 0 0 0 0 0 0 0 0 0 0 0 0 0 0 0 0 0 0 0 0 0 0 0
0 0 0 0 0 0 0 0 0 0 0 0 0 0 0 0 0 0 0 0 0 0 0 0 0 0 0 0 0 0 0 0 0 0 0 0 0 0 0 0 0 0 0 0
0 0 0 0 0 0 0 0 0 0 0 0 0 0 0 0 0 0 0 0 0 0 0 0 0 0 0 0 0 0 0 0 0 0 0 0 0 0 0 0 0 0 0 0
0 0 0 0 0 0 0 0 0 0 0 0 0 0 0 0 0 0 0 0 0 0 0 0 0 0 0 0 0 0 0 0 0 0 0 0 0 0 0 0 0 0 0 0
0 0 0 0 0 0 0 0 0 0 0 0 0 0 0 0 0 0 0 0 0 0 0 0 0 0 0 0 0 0 0 0 0 0 0 0 0 0 0 0 0 0 0 0
0 0 0 0 0 0 0 0 0 0 0 0 0 0 0 0 0 0 0 0 0 0 0 0 0 0 0 0 0 0 0 0 0 0 0 0 0 0 0 0 0 0 0 0
0 0 0 0 0 0 0 0 0 0 0 0 0 0 0 0 0 0 0 0 0 0 0 0 0 0 0 0 0 0 0 0 0 0 0 0 0 0 0 0 0 0 0 0
0 0 0 0 0 0 0 0 0 0 0 0 0 0 0 0 0 0 0 0 0 0 0 0 0 0 0 0 0 0 0 0 0 0 0 0 0 0 0 0 0 0 0 0
0 0 0 0 0 0 0 0 0 0 0 0 0 0 0 0 0 0 0 0 0 0 0 0 0 0 0 0 0 0 0 0 0 0 0 0 0 0 0 0 0 0 0 0
Wind_Speed
2 1 3 5 6 8 8 8 8 8 8 14 14 13 11 8 6 8 9 9 10 11 11 10 9 8 8 8 7 6 5 5 4 5 7 8 9 10 11 11 12 13 14 13
2 1 3 5 8 9 9 8 10 10 14 15 11 7 7 6 6 8 9 9 10 10 10 10 9 8 8 8 8 7 7 8 8 9 10 10 11 12 13 13 13 13 13 13
1 2 1 7 10 13 8 8 9 12 13 10 9 9 6 5 4 6 7 8 8 8 8 8 8 7 8 8 8 8 9 9 9 11 11 11 12 13 13 13 13 13 12 13
1 2 5 7 2 8 8 7 10 9 11 10 9 6 2 0 2 4 5 6 6 6 6 6 7 7 7 7 8 8 9 9 10 11 12 11 12 13 12 11 11 11 11 12
1 2 7 7 3 6 6 5 7 11 13 10 5 4 2 1 1 2 3 4 4 4 5 6 6 6 6 7 8 8 9 9 9 9 11 11 11 11 10 10 10 9 9 10
2 3 5 4 1 3 4 2 3 5 7 6 2 2 2 2 1 1 2 2 3 4 5 6 6 6 7 7 8 8 8 8 8 9 9 10 10 10 9 9 9 9 9 8
4 4 7 6 2 3 2 3 3 3 5 4 4 5 2 3 2 2 1 2 3 4 5 5 5 6 7 7 8 7 7 8 9 9 9 9 9 9 9 9 9 9 9 7
5 6 8 3 5 5 5 3 3 3 3 4 4 3 4 4 3 3 2 3 3 4 5 5 5 6 7 7 6 6 7 8 9 8 8 8 9 8 8 8 8 7 7 6
7 8 4 3 6 5 3 4 4 3 3 2 3 4 5 4 4 4 3 3 3 4 5 5 5 5 6 5 5 7 8 9 8 9 8 7 7 7 6 6 5 4 4 4
5 7 6 7 6 6 5 5 4 4 3 4 5 5 6 5 5 5 4 3 3 4 5 5 4 5 5 5 5 7 8 7 7 7 7 7 5 5 5 4 4 4 3 3
5 6 6 4 3 3 3 4 4 3 3 5 5 6 7 6 6 5 5 4 4 4 5 5 4 5 4 5 6 8 7 6 6 6 5 6 5 4 4 2 3 3 2 2
6 4 3 6 5 4 4 5 5 4 3 3 5 6 7 7 6 6 6 5 5 5 5 5 5 5 4 4 5 7 6 5 4 4 4 4 4 4 7 6 8 7 4 2
3 2 4 7 6 4 4 5 4 4 4 4 4 6 7 6 6 7 7 7 6 6 6 5 5 5 4 4 5 6 6 5 3 3 3 3 3 3 3 5 8 8 7 6
1 3 4 4 5 6 5 3 1 1 2 3 4 5 6 6 7 7 7 7 7 7 6 6 5 4 3 5 6 6 5 5 5 3 3 3 3 2 2 2 1 2 5 7
2 3 6 8 8 5 2 1 1 2 2 2 4 5 7 8 8 7 7 7 7 7 6 6 6 4 4 5 6 6 5 4 3 3 3 3 3 2 2 2 2 2 2 4
7 6 6 6 6 5 3 3 4 4 4 4 5 6 6 7 7 7 7 8 8 8 7 6 6 5 5 6 6 5 4 7 5 3 3 3 2 2 2 1 1 2 2 3
5 6 5 6 8 8 6 6 6 5 5 6 6 6 7 7 7 7 6 6 5 6 6 6 6 5 5 6 6 4 4 4 6 4 3 2 2 1 1 1 1 2 2 4
5 7 8 9 10 10 9 7 6 6 6 6 7 8 9 9 9 8 7 6 6 5 4 5 6 6 6 6 5 4 4 3 3 3 2 1 1 0 0 1 2 3 3 4
5 6 7 8 8 8 8 7 6 5 5 7 9 9 8 8 8 8 8 8 8 7 6 6 11 7 6 6 6 4 4 4 3 2 1 1 1 0 1 2 2 3 3 3
6 7 7 8 8 6 6 5 3 3 5 7 8 7 7 7 8 9 8 7 5 4 7 8 8 6 6 6 7 4 4 4 3 2 1 1 1 1 2 2 3 3 3 4
7 8 8 8 8 7 5 4 1 2 4 6 7 8 7 7 8 8 8 6 4 6 8 12 7 5 5 6 7 4 4 4 3 3 2 2 2 2 2 3 3 4 4 4
6 7 8 8 8 8 6 4 2 2 3 4 5 6 7 8 8 6 5 4 6 11 8 6 5 8 9 8 4 4 4 4 3 3 2 2 2 3 3 3 3 4 4 4
5 6 7 8 8 6 5 4 3 1 2 3 5 7 7 7 7 7 6 4 6 12 8 6 9 13 13 7 4 4 4 4 3 3 3 3 3 3 3 4 4 4 4 5
5 6 6 6 6 5 5 5 4 2 1 1 3 5 6 5 4 3 3 9 13 13 7 10 15 15 13 5 4 4 4 4 3 3 3 3 3 3 3 4 4 4 5 6
4 5 5 6 5 4 4 4 3 2 1 0 1 3 4 4 4 5 5 7 13 13 7 11 16 15 8 5 5 4 4 4 4 4 3 3 3 3 4 4 4 5 5 6
4 4 4 4 3 4 3 3 2 2 1 1 1 1 2 2 3 5 5 7 9 12 8 6 8 10 6 5 5 5 4 4 3 3 3 3 4 4 4 4 6 5 5 6
4 3 3 3 3 3 3 3 3 3 2 2 2 2 3 3 3 4 5 6 6 7 6 5 6 6 6 5 5 4 4 3 3 3 3 3 4 4 4 5 5 5 6 6
Wind_Direction
216 226 175 199 193 187 194 193 204 237 249 275 288 294 299 306 326 336 339 343 345 342 336 336 341 346 351 350 353 2 20 34 44 77 92 100 103 104 106 108 110 111 111 110
330 255 214 235 223 205 213 218 236 262 277 271 277 286 296 316 335 335 337 342 344 344 344 348 351 354 0 6 10 26 45 51 59 75 83 89 94 98 99 101 104 107 109 110
298 281 317 260 224 199 199 205 202 232 247 272 290 298 307 320 334 332 336 339 343 344 347 351 357 4 13 19 29 44 53 59 66 77 82 86 92 94 96 98 100 101 103 105
273 355 257 245 216 180 197 227 213 234 257 272 280 297 295 80 335 331 334 337 342 345 352 360 10 20 29 37 45 56 62 67 73 82 86 88 91 93 95 98 99 101 102 103
214 275 279 290 230 168 180 257 223 230 257 273 300 319 272 139 54 341 335 338 347 358 7 16 22 26 41 47 51 58 62 67 74 83 88 90 91 94 96 97 96 96 98 100
204 253 258 253 278 168 138 276 255 218 255 276 321 307 274 143 111 48 11 7 15 18 27 31 28 35 51 52 54 56 60 66 71 79 87 90 91 92 91 93 93 91 86 85
219 245 264 252 204 140 171 229 271 244 257 259 223 221 163 136 125 103 60 52 47 41 40 37 39 51 59 55 53 55 65 71 73 78 83 87 87 86 89 89 88 85 83 74
193 217 253 226 143 182 221 248 266 262 255 245 224 165 149 153 141 126 102 79 68 60 51 46 53 67 69 59 56 63 70 74 73 73 77 81 84 82 83 89 89 86 86 77
200 219 240 197 211 238 224 252 259 245 247 226 205 190 176 168 156 142 128 106 91 84 71 59 59 73 80 69 73 78 76 73 73 72 68 71 80 83 77 77 86 85 86 85
244 261 259 259 261 267 242 234 248 245 243 207 204 189 177 169 161 150 140 129 120 108 95 79 68 71 77 84 88 88 83 76 73 75 70 62 62 71 82 85 90 92 92 90
247 273 297 289 264 273 267 250 258 258 228 211 197 187 178 172 167 157 147 139 131 125 116 107 95 84 81 88 97 92 84 79 75 74 78 72 66 73 87 89 124 120 120 124
225 238 239 275 291 298 277 267 256 246 234 206 193 184 171 169 163 155 150 144 139 132 126 121 112 101 94 98 106 107 98 86 81 81 76 76 77 67 76 87 86 93 110 120
259 300 255 266 285 289 280 272 255 229 220 206 190 174 162 159 158 152 151 153 153 147 138 132 123 114 111 111 107 105 109 106 95 93 94 93 90 91 74 54 62 60 49 37
15 356 310 312 311 309 292 284 242 215 204 187 169 157 152 148 152 157 161 159 149 143 139 137 130 125 126 121 112 108 108 113 110 104 102 99 97 95 94 82 37 8 11 12
23 340 280 286 293 296 294 264 238 232 194 173 165 162 160 160 164 164 156 148 142 142 144 144 140 139 138 128 120 118 115 111 109 107 102 99 96 89 76 67 54 12 348 349
312 302 292 295 303 304 294 269 253 243 213 196 186 180 172 161 153 149 152 154 156 162 162 157 153 152 145 132 123 118 122 131 125 114 102 91 83 78 65 46 20 351 330 315
314 319 325 318 314 307 290 267 252 241 216 202 191 171 154 146 146 153 159 160 154 152 157 157 152 146 141 136 131 126 122 125 120 105 98 98 91 81 54 355 318 306 297 299
272 280 286 288 291 293 290 277 257 236 216 197 168 160 165 169 171 168 157 141 130 131 148 148 143 138 134 134 129 126 122 117 116 119 118 128 126 105 344 303 298 297 296 303
308 304 302 298 292 285 281 276 263 234 196 170 168 176 180 176 166 157 153 155 161 166 171 161 156 143 138 146 136 124 125 126 121 118 116 153 118 54 293 286 286 286 288 290
332 327 322 318 315 305 294 290 270 206 175 167 167 169 171 168 159 159 164 176 184 171 156 158 149 142 143 150 140 126 133 139 144 149 155 173 212 259 272 277 281 281 280 282
343 340 339 337 334 333 329 322 281 169 165 168 173 177 173 164 162 163 170 184 180 154 156 160 149 146 146 152 144 133 142 149 158 172 187 208 236 257 267 274 281 285 287 289
346 345 346 346 347 347 346 353 22 125 153 169 170 162 160 165 170 177 189 181 162 167 159 153 150 161 164 152 136 144 152 159 167 179 197 216 236 254 264 271 277 282 283 282
348 347 347 348 344 339 350 7 13 32 183 184 178 177 178 179 177 180 191 176 161 171 161 161 170 171 166 148 145 154 162 171 183 195 209 222 237 250 262 272 273 275 279 281
349 348 343 338 341 352 357 352 351 346 299 213 193 185 176 174 186 192 159 169 176 173 166 175 176 176 162 143 153 160 172 183 193 203 215 229 242 252 259 266 273 275 276 279
339 335 338 348 354 347 334 331 340 349 353 321 208 191 187 183 181 176 163 171 178 170 164 180 181 175 154 150 162 170 180 193 199 203 214 230 244 254 260 264 267 274 277 276
336 330 324 321 320 319 322 325 322 315 309 290 263 208 183 160 155 158 164 171 177 172 167 168 168 162 150 160 167 176 186 206 224 218 218 234 248 256 262 268 273 272 272 273
328 324 322 325 328 330 323 313 303 293 280 260 251 213 184 169 165 167 167 169 169 163 159 156 149 146 153 160 169 179 188 197 208 218 229 239 247 254 262 268 271 272 274 275